| time (UTC) | temp F | wind direction | speed knots | gust knots | rain 1hr in | rain 24hr in | rain mn in | humidity % | barometer mb |
| 20260508203050 | 48 | 341 | 1.7 | 4.3 | 0.00 | 0.10 | 0.00 | 86 | 1003.2 |
| 20260508201550 | 49 | 341 | 2.6 | 4.3 | 0.00 | 0.10 | 0.00 | 87 | 1003.2 |
| 20260508200048 | 48 | 341 | 2.6 | 5.2 | 0.00 | 0.10 | 0.00 | 88 | 1003.0 |
| 20260508194601 | 47 | 335 | 1.7 | 4.3 | 0.00 | 0.24 | 0.00 | 89 | 1003.1 |
| 20260508193101 | 47 | 335 | 3.5 | 4.3 | 0.00 | 0.24 | 0.00 | 90 | 1003.0 |
| 20260508191555 | 46 | 334 | 2.6 | 4.3 | 0.00 | 0.24 | 0.00 | 91 | 1002.9 |
| 20260508190103 | 45 | 334 | 1.7 | 3.5 | 0.00 | 0.24 | 0.00 | 91 | 1003.0 |
| 20260508184544 | 44 | 334 | 2.6 | 4.3 | 0.00 | 0.52 | 0.00 | 90 | 1002.9 |
| 20260508183045 | 45 | 334 | 2.6 | 5.2 | 0.00 | 0.52 | 0.00 | 89 | 1002.8 |
| 20260508181549 | 45 | 334 | 3.5 | 5.2 | 0.00 | 0.52 | 0.00 | 88 | 1002.9 |
| 20260508180043 | 49 | 336 | 3.5 | 5.2 | 0.00 | 0.52 | 0.00 | 88 | 1003.2 |
| 20260508174543 | 48 | 336 | 3.5 | 5.2 | 0.00 | 0.52 | 0.00 | 88 | 1003.5 |
| 20260508173041 | 47 | 334 | 3.5 | 5.2 | 0.00 | 0.52 | 0.00 | 89 | 1003.4 |
| 20260508171545 | 46 | 333 | 3.5 | 6.1 | 0.00 | 0.52 | 0.00 | 88 | 1003.4 |
| 20260508170043 | 49 | 354 | 3.5 | 6.1 | 0.00 | 0.52 | 0.00 | 89 | 1003.2 |
| 20260508164540 | 49 | 358 | 5.2 | 7.0 | 0.00 | 0.52 | 0.00 | 87 | 1003.0 |
| 20260508163053 | 50 | 336 | 3.5 | 5.2 | 0.00 | 0.52 | 0.00 | 88 | 1002.9 |
| 20260508161549 | 48 | 326 | 2.6 | 6.1 | 0.00 | 0.52 | 0.00 | 90 | 1002.8 |
| 20260508160034 | 48 | 319 | 3.5 | 5.2 | 0.00 | 0.52 | 0.00 | 89 | 1002.5 |
| 20260508154533 | 49 | 317 | 3.5 | 4.3 | 0.00 | 0.52 | 0.00 | 90 | 1002.9 |
| 20260508153050 | 49 | 317 | 3.5 | 4.3 | 0.00 | 0.52 | 0.00 | 89 | 1003.2 |
| 20260508151533 | 49 | 315 | 1.7 | 4.3 | 0.00 | 0.52 | 0.00 | 91 | 1003.2 |
| 20260508150029 | 48 | 313 | 3.5 | 5.2 | 0.00 | 0.52 | 0.00 | 91 | 1003.0 |
| 20260508144527 | 49 | 307 | 2.6 | 4.3 | 0.00 | 0.52 | 0.00 | 91 | 1003.4 |
| 20260508143032 | 49 | 307 | 1.7 | 4.3 | 0.00 | 0.52 | 0.00 | 93 | 1003.4 |
| 20260508141522 | 49 | 304 | 2.6 | 4.3 | 0.00 | 0.52 | 0.00 | 94 | 1003.6 |
| 20260508140017 | 48 | 303 | 1.7 | 4.3 | 0.00 | 0.52 | 0.00 | 95 | 1003.6 |
| 20260508134516 | 47 | 301 | 2.6 | 4.3 | 0.00 | 0.52 | 0.00 | 96 | 1003.6 |
| 20260508133011 | 48 | 299 | 2.6 | 4.3 | 0.00 | 0.52 | 0.00 | 97 | 1003.3 |
| 20260508131507 | 47 | 299 | 1.7 | 3.5 | 0.00 | 0.52 | 0.00 | 98 | 1003.2 |
| 20260508130004 | 45 | 299 | 1.7 | 3.5 | 0.00 | 0.52 | 0.00 | 98 | 1003.1 |
| 20260508124559 | 44 | 299 | 1.7 | 2.6 | 0.00 | 0.52 | 0.00 | 98 | 1003.3 |
| 20260508123055 | 44 | 299 | 0.9 | 1.7 | 0.00 | 0.52 | 0.00 | 98 | 1003.3 |
| 20260508121552 | 43 | 299 | 0.9 | 2.6 | 0.00 | 0.52 | 0.00 | 98 | 1003.3 |
| 20260508120058 | 42 | 298 | 0.9 | 3.5 | 0.00 | 0.52 | 0.00 | 98 | 1003.4 |
| 20260508114544 | 41 | 298 | 1.7 | 4.3 | 0.00 | 0.52 | 0.00 | 98 | 1003.4 |
| 20260508113044 | 42 | 299 | 1.7 | 4.3 | 0.00 | 0.52 | 0.00 | 98 | 1003.5 |
| 20260508111543 | 43 | 298 | 2.6 | 4.3 | 0.00 | 0.52 | 0.00 | 98 | 1003.8 |
| 20260508110038 | 44 | 96 | 0.0 | 1.7 | 0.00 | 0.52 | 0.00 | 99 | 1003.7 |
| 20260508104539 | 43 | 96 | 1.7 | 3.5 | 0.00 | 0.52 | 0.00 | 99 | 1003.7 |
| 20260508103045 | 42 | 93 | 1.7 | 2.6 | 0.00 | 0.52 | 0.00 | 98 | 1003.6 |
| 20260508101536 | 42 | 93 | 0.9 | 2.6 | 0.00 | 0.52 | 0.00 | 99 | 1003.4 |
| 20260508100048 | 41 | 93 | 3.5 | 4.3 | 0.00 | 0.52 | 0.00 | 98 | 1003.4 |
| 20260508094531 | 40 | 93 | 2.6 | 4.3 | 0.00 | 0.52 | 0.00 | 98 | 1003.0 |
| 20260508093035 | 39 | 91 | 1.7 | 4.3 | 0.00 | 0.52 | 0.00 | 98 | 1003.2 |
| 20260508091528 | 39 | 89 | 3.5 | 4.3 | 0.00 | 0.52 | 0.00 | 97 | 1002.9 |
| 20260508090026 | 40 | 88 | 2.6 | 3.5 | 0.00 | 0.52 | 0.00 | 98 | 1002.7 |
| 20260508084521 | 40 | 87 | 0.9 | 2.6 | 0.00 | 0.52 | 0.00 | 98 | 1002.5 |
| 20260508083021 | 40 | 87 | 2.6 | 4.3 | 0.00 | 0.52 | 0.00 | 98 | 1002.3 |
| 20260508081521 | 41 | 87 | 2.6 | 4.3 | 0.00 | 0.52 | 0.00 | 98 | 1002.2 |
| 20260508080023 | 41 | 86 | 1.7 | 4.3 | 0.00 | 0.52 | 0.00 | 98 | 1002.4 |
| 20260508074518 | 41 | 85 | 1.7 | 4.3 | 0.00 | 0.52 | 0.00 | 98 | 1002.5 |
| 20260508073017 | 41 | 84 | 3.5 | 5.2 | 0.00 | 0.52 | 0.00 | 97 | 1002.5 |
| 20260508071517 | 42 | 83 | 0.9 | 3.5 | 0.00 | 0.52 | 0.00 | 98 | 1002.7 |
| 20260508070015 | 42 | 82 | 0.0 | 1.7 | 0.00 | 0.52 | 0.00 | 98 | 1002.6 |
| 20260508064514 | 42 | 82 | 1.7 | 2.6 | 0.00 | 0.52 | 0.00 | 98 | 1002.3 |
| 20260508063014 | 42 | 82 | 1.7 | 4.3 | 0.00 | 0.52 | 0.00 | 98 | 1002.8 |
| 20260508061513 | 43 | 84 | 1.7 | 4.3 | 0.00 | 0.52 | 0.00 | 98 | 1002.6 |
| 20260508060021 | 42 | 87 | 2.6 | 4.3 | 0.00 | 0.52 | 0.00 | 98 | 1002.7 |
| 20260508054523 | 42 | 96 | 2.6 | 5.2 | 0.00 | 0.52 | 0.00 | 98 | 1002.8 |
| 20260508053011 | 42 | 334 | 0.9 | 3.5 | 0.00 | 0.52 | 0.00 | 98 | 1002.7 |
| 20260508051511 | 41 | 334 | 0.0 | 4.3 | 0.00 | 0.52 | 0.00 | 98 | 1002.6 |
| 20260508050009 | 40 | 334 | 0.0 | 4.3 | 0.00 | 0.52 | 0.00 | 97 | 1002.9 |
| 20260508044508 | 41 | 334 | 1.7 | 6.1 | 0.00 | 0.52 | 0.00 | 97 | 1002.9 |
| 20260508043005 | 42 | 17 | 4.3 | 9.6 | 0.00 | 0.52 | 0.00 | 97 | 1003.3 |
| 20260508041511 | 42 | 22 | 4.3 | 7.0 | 0.00 | 0.52 | 0.00 | 97 | 1003.0 |
| 20260508040005 | 42 | 26 | 4.3 | 7.0 | 0.00 | 0.52 | 0.00 | 97 | 1003.2 |
| 20260508034502 | 42 | 39 | 7.0 | 9.6 | 0.00 | 0.52 | 0.00 | 96 | 1003.0 |
| 20260508033100 | 42 | 352 | 10.4 | 15.6 | 0.00 | 0.52 | 0.00 | 96 | 1003.2 |
| 20260508031601 | 43 | 333 | 11.3 | 16.5 | 0.00 | 0.52 | 0.00 | 94 | 1003.0 |
| 20260508030059 | 49 | 22 | 0.0 | 5.2 | 0.00 | 0.52 | 0.00 | 96 | 1002.3 |
| 20260508024603 | 49 | 353 | 0.9 | 5.2 | 0.00 | 0.52 | 0.52 | 96 | 1002.6 |
| 20260508023051 | 49 | 352 | 2.6 | 7.0 | 0.00 | 0.52 | 0.52 | 96 | 1002.5 |
| 20260508021551 | 49 | 32 | 3.5 | 5.2 | 0.00 | 0.52 | 0.52 | 96 | 1002.8 |
| 20260508014552 | 49 | 31 | 2.6 | 5.2 | 0.00 | 0.52 | 0.52 | 96 | 1002.9 |
| 20260508013049 | 49 | 38 | 1.7 | 6.1 | 0.00 | 0.52 | 0.52 | 96 | 1002.8 |
| 20260508011552 | 48 | 348 | 2.6 | 4.3 | 0.00 | 0.52 | 0.52 | 96 | 1002.6 |
| 20260508010051 | 47 | 348 | 0.9 | 2.6 | 0.00 | 0.52 | 0.52 | 96 | 1003.0 |
| 20260508004549 | 47 | 348 | 0.9 | 5.2 | 0.00 | 0.52 | 0.52 | 95 | 1003.1 |
| 20260508003049 | 47 | 349 | 1.7 | 6.1 | 0.00 | 0.52 | 0.52 | 94 | 1003.0 |
| 20260508001547 | 49 | 344 | 3.5 | 7.0 | 0.00 | 0.52 | 0.52 | 93 | 1003.1 |
| 20260508000045 | 50 | 41 | 1.7 | 4.3 | 0.00 | 0.52 | 0.52 | 95 | 1002.7 |
| 20260507234546 | 49 | 43 | 0.9 | 3.5 | 0.00 | 0.52 | 0.52 | 94 | 1002.6 |
| 20260507233045 | 48 | 41 | 7.0 | 15.6 | 0.00 | 0.52 | 0.52 | 94 | 1002.3 |
| 20260507231546 | 48 | 335 | 8.7 | 18.2 | 0.00 | 0.52 | 0.52 | 87 | 1001.9 |
| 20260507230043 | 56 | 187 | 4.3 | 8.7 | 0.00 | 0.52 | 0.52 | 91 | 1001.5 |
| 20260507224540 | 56 | 157 | 7.8 | 12.2 | 0.00 | 0.52 | 0.52 | 91 | 1001.4 |
| 20260507223039 | 56 | 157 | 8.7 | 13.0 | 0.00 | 0.52 | 0.52 | 91 | 1001.4 |
| 20260507221538 | 56 | 180 | 8.7 | 17.4 | 0.00 | 0.52 | 0.52 | 91 | 1001.5 |
| 20260507220036 | 56 | 166 | 7.8 | 17.4 | 0.00 | 0.52 | 0.52 | 92 | 1001.3 |
| 20260507214638 | 56 | 194 | 15.6 | 22.6 | 0.00 | 0.52 | 0.52 | 91 | 1001.3 |
| 20260507213036 | 56 | 159 | 9.6 | 20.0 | 0.01 | 0.52 | 0.52 | 92 | 1001.3 |
| 20260507211540 | 55 | 209 | 13.0 | 19.1 | 0.04 | 0.52 | 0.52 | 95 | 1001.3 |
| 20260507210037 | 54 | 134 | 17.4 | 21.7 | 0.09 | 0.52 | 0.52 | 95 | 1001.3 |
| 20260507204635 | 54 | 170 | 14.8 | 31.3 | 0.14 | 0.52 | 0.52 | 94 | 1001.2 |